KN6RO-14 Weather Reports


time (UTC)temp
C
wind
direction
speed
KPH
gust
KPH
rain 1hr
cm
rain 24hr
cm
rain mn
cm
humidity
%
barometer
mb
20260504045412 11 41 0.0 4.8 0.00 0.00 0.00 57 1018.1
20260504042413 10 243 0.0 1.6 0.00 0.00 0.00 63 1018.1
20260504035413 11 242 0.0 3.2 0.00 0.00 0.00 61 1018.1
20260504032413 11 240 0.0 1.6 0.00 0.00 0.00 57 1018.1
20260504025413 12 242 1.6 3.2 0.00 0.00 0.00 57 1018.1
20260504022413 12 246 0.0 1.6 0.00 0.00 0.00 56 1018.1
20260504015413 12 249 1.6 3.2 0.00 0.00 0.00 53 1017.8
20260504012413 12 245 1.6 3.2 0.00 0.00 0.00 52 1017.6
20260504005413 13 245 0.0 1.6 0.00 0.00 0.00 50 1017.4
20260504002413 13 349 1.6 3.2 0.00 0.00 0.00 50 1017.3
20260503235413 13 76 1.6 4.8 0.00 0.00 0.00 52 1017.1
20260503232413 15 315 0.0 6.4 0.00 0.00 0.00 47 1016.9
20260503225413 15 354 3.2 6.4 0.00 0.00 0.00 44 1017.2
20260503222413 15 97 3.2 6.4 0.00 0.00 0.00 41 1017.3
20260503215413 16 244 1.6 3.2 0.00 0.00 0.00 41 1017.2
20260503212413 16 70 3.2 8.0 0.00 0.00 0.00 42 1017.4
20260503205413 16 48 3.2 4.8 0.00 0.00 0.00 41 1017.6
20260503202413 16 120 3.2 9.7 0.00 0.00 0.00 38 1018.0
20260503195413 16 37 3.2 12.9 0.00 0.00 0.00 39 1018.4
20260503192413 16 21 1.6 1.6 0.00 0.00 0.00 44 1018.7
20260503185413 16 37 3.2 6.4 0.00 0.00 0.00 44 1019.2
20260503182413 17 43 3.2 8.0 0.00 0.00 0.00 42 1019.1
20260503175414 16 262 3.2 8.0 0.00 0.00 0.00 45 1019.3
20260503172414 16 70 3.2 9.7 0.00 0.00 0.00 43 1019.5